Lafayette, LA

6:00 PM CDT on July 27, 2017 (GMT -0500)
Lafayette Regional

Weather History for KLFT - December, 2012

Change the Weather History Date:

Tuesday, December 25, 2012

  Actual Average Record
Temperature  
Mean Temperature 59 °F 53 °F  
Max Temperature 74 °F 63 °F 80 °F (2015)
Min Temperature 44 °F 43 °F 12 °F (1983)
Degree Days  
Heating Degree Days 6 13  
Month to date heating degree days 144 277  
Since 1 July heating degree days 377 476  
Growing Degree Days 10 (Base 50)    
Moisture  
Dew Point 60 °F    
Average Humidity 80    
Maximum Humidity 100    
Minimum Humidity 60    
Precipitation  
Precipitation 0.34 in 0.19 in 2.43 in (1926)
Month to date precipitation 5.30 4.44  
Year to date precipitation 64.79 59.36  
Snow  
Snow 0.00 in 0.00 in T in (1953)
Month to date snowfall 0.0 0.0  
Since 1 July snowfall 0.0 0.0  
Snow Depth 0.00 in    
Sea Level Pressure  
Sea Level Pressure 29.69 in    
Wind  
Wind Speed 15 mph (SSW)    
Max Wind Speed 36 mph    
Max Gust Speed 46 mph    
Visibility 8 miles    
Events Fog , Rain    
T = Trace of Precipitation, MM = Missing Value Source: NWS Daily Summary

Daily Weather History Graph

Daily Weather History Graph

Search for Another Location

Airport or City:

Trip Planner

Search our weather history database for the weather conditions in past years. The results will help you decide how hot, cold, wet, or windy it might be!

Date:

Astronomy

Dec. 25, 2012 Rise Set
Actual Time 7:02 AM CST 5:14 PM CST
Civil Twilight 6:35 AM CST 5:40 PM CST
Nautical Twilight 6:05 AM CST 6:10 PM CST
Astronomical Twilight 5:36 AM CST 6:40 PM CST
Moon 3:20 PM CST (12/25) 4:38 AM CST (12/25)
Length of Visible Light 11h 05m
Length of Day
10h 12m
Waxing Gibbous, 94% of the Moon is Illuminated
Dec 25
Waxing Gibbous
Dec 28
Full
Jan 4
Last Quarter
Jan 11
New
Jan 18
First Quarter

Hourly Weather History & Observations

Time (CST) Temp. Windchill Dew Point Humidity Pressure Visibility Wind Dir Wind Speed Gust Speed Precip Events Conditions
12:16 AM 62.6 °F - 60.8 °F 94% 29.82 in 0.8 mi Calm Calm - 0.01 in   Mist
12:28 AM 62.6 °F - 60.8 °F 94% 29.82 in 1.2 mi South 3.5 mph - 0.01 in   Overcast
12:44 AM 62.6 °F - 60.8 °F 94% 29.82 in 1.8 mi Calm Calm - 0.01 in   Overcast
12:53 AM 63.0 °F - 61.0 °F 93% 29.81 in 1.5 mi SSE 4.6 mph - 0.01 in   Overcast
1:10 AM 62.6 °F - 60.8 °F 94% 29.81 in 0.5 mi SSE 5.8 mph - N/A Fog Fog
1:53 AM 63.0 °F - 62.1 °F 97% 29.79 in 0.5 mi Variable 3.5 mph - N/A Fog Fog
2:35 AM 64.4 °F - 62.6 °F 94% 29.77 in 1.2 mi ESE 3.5 mph - N/A   Overcast
2:44 AM 64.4 °F - 62.6 °F 94% 29.76 in 3.0 mi ESE 3.5 mph - 0.00 in Rain Light Rain
2:53 AM 64.0 °F - 63.0 °F 96% 29.76 in 5.0 mi SE 3.5 mph - 0.00 in   Mostly Cloudy
2:55 AM 64.4 °F - 62.6 °F 94% 29.76 in 6.0 mi Variable 3.5 mph - N/A   Overcast
3:53 AM 64.9 °F - 62.1 °F 90% 29.74 in 8.0 mi SSE 5.8 mph - 0.00 in   Scattered Clouds
4:17 AM 64.4 °F - 62.6 °F 94% 29.76 in 10.0 mi South 5.8 mph - N/A   Mostly Cloudy
4:44 AM 64.4 °F - 62.6 °F 94% 29.73 in 10.0 mi SSE 5.8 mph - N/A   Mostly Cloudy
4:53 AM 64.9 °F - 62.1 °F 90% 29.74 in 10.0 mi South 6.9 mph - N/A   Partly Cloudy
5:53 AM 64.9 °F - 63.0 °F 93% 29.71 in 10.0 mi SE 4.6 mph - N/A   Mostly Cloudy
6:24 AM 64.4 °F - 62.6 °F 94% 29.72 in 1.8 mi SSE 12.7 mph 18.4 mph 0.13 in Rain Heavy Rain
6:32 AM 64.4 °F - 64.4 °F 100% 29.72 in 3.0 mi South 5.8 mph 18.4 mph 0.14 in Rain Light Rain
6:35 AM 64.4 °F - 64.4 °F 100% 29.71 in 6.0 mi South 4.6 mph - 0.14 in Rain Light Rain
6:42 AM 64.4 °F - 64.4 °F 100% 29.71 in 9.0 mi South 6.9 mph - 0.14 in Rain Light Rain
6:53 AM 64.9 °F - 64.0 °F 97% 29.69 in 10.0 mi SSE 5.8 mph - 0.14 in Rain Light Rain
7:02 AM 66.2 °F - 64.4 °F 94% 29.69 in 9.0 mi South 8.1 mph - 0.01 in Rain Light Rain
7:28 AM 68.0 °F - 64.4 °F 88% 29.68 in 9.0 mi South 15.0 mph 21.9 mph 0.02 in Rain Light Rain
7:53 AM 69.1 °F - 64.9 °F 87% 29.69 in 10.0 mi South 10.4 mph 23.0 mph 0.02 in Rain Light Rain
8:00 AM 69.8 °F - 64.4 °F 83% 29.69 in 10.0 mi South 10.4 mph - 0.00 in Rain Light Rain
8:09 AM 69.8 °F - 64.4 °F 83% 29.70 in 10.0 mi South 11.5 mph 18.4 mph 0.00 in   Overcast
8:46 AM 71.6 °F - 64.4 °F 78% 29.68 in 10.0 mi South 12.7 mph 20.7 mph 0.00 in   Mostly Cloudy
8:53 AM 71.1 °F - 64.9 °F 81% 29.68 in 10.0 mi South 13.8 mph 21.9 mph 0.00 in   Mostly Cloudy
9:53 AM 73.0 °F - 64.0 °F 73% 29.66 in 10.0 mi South 20.7 mph 32.2 mph N/A   Partly Cloudy
10:53 AM 73.0 °F - 63.0 °F 71% 29.68 in 10.0 mi South 16.1 mph 27.6 mph N/A   Overcast
11:44 AM 71.6 °F - 62.6 °F 73% 29.64 in 10.0 mi South 18.4 mph 24.2 mph N/A   Overcast
11:53 AM 73.0 °F - 63.0 °F 71% 29.62 in 10.0 mi South 16.1 mph 25.3 mph N/A   Overcast
12:16 PM 73.4 °F - 62.6 °F 69% 29.59 in 10.0 mi South 16.1 mph 29.9 mph N/A   Overcast
12:53 PM 73.9 °F - 64.0 °F 71% 29.57 in 10.0 mi SSW 21.9 mph 35.7 mph N/A   Overcast
1:08 PM 73.4 °F - 64.4 °F 73% 29.56 in 10.0 mi SSW 25.3 mph 34.5 mph 0.00 in Rain Light Rain
1:53 PM 73.0 °F - 64.9 °F 76% 29.53 in 8.0 mi SW 27.6 mph 46.0 mph 0.01 in Rain Light Rain
2:00 PM 71.6 °F - 64.4 °F 78% 29.52 in 4.0 mi SSW 25.3 mph 42.6 mph 0.03 in Rain Heavy Rain
2:23 PM 71.6 °F - 66.2 °F 83% 29.54 in 2.0 mi SW 16.1 mph 28.8 mph 0.12 in Rain Light Rain
2:36 PM 71.6 °F - 66.2 °F 83% 29.52 in 10.0 mi SW 17.3 mph 31.1 mph 0.13 in Rain Light Rain
2:53 PM 72.0 °F - 66.0 °F 81% 29.53 in 10.0 mi SW 24.2 mph 34.5 mph 0.13 in   Mostly Cloudy
3:11 PM 60.8 °F - 55.4 °F 82% 29.58 in 6.0 mi West 13.8 mph 34.5 mph 0.02 in Rain Light Rain
3:53 PM 61.0 °F - 54.0 °F 78% 29.57 in 10.0 mi West 11.5 mph 20.7 mph 0.03 in   Mostly Cloudy
4:53 PM 63.0 °F - 53.1 °F 70% 29.59 in 10.0 mi WSW 10.4 mph - N/A   Mostly Cloudy
5:53 PM 61.0 °F - 52.0 °F 72% 29.61 in 10.0 mi West 8.1 mph - N/A   Clear
6:53 PM 60.1 °F - 46.9 °F 62% 29.66 in 10.0 mi WNW 24.2 mph 28.8 mph N/A   Clear
7:53 PM 55.9 °F - 45.0 °F 67% 29.70 in 10.0 mi WNW 16.1 mph 26.5 mph N/A   Clear
8:53 PM 54.0 °F - 44.1 °F 69% 29.75 in 10.0 mi NW 16.1 mph 23.0 mph N/A   Partly Cloudy
9:53 PM 50.0 °F - 39.9 °F 68% 29.79 in 10.0 mi WNW 21.9 mph 27.6 mph N/A   Scattered Clouds
10:53 PM 48.0 °F - 37.0 °F 66% 29.84 in 10.0 mi WNW 18.4 mph 28.8 mph N/A   Overcast
11:53 PM 44.1 °F 36.5 °F 34.0 °F 68% 29.88 in 10.0 mi NW 17.3 mph 27.6 mph N/A   Partly Cloudy